SCP
0 0 0 0 0 0 0 0 0 0 0 0 0 -0 0 0 0 0 0 0 0 0 0 0 0 0 -0 0 0 0 0 0 0 0 0 0 0 0 0 0 0 0 0 0 0 0 0
0 0 0 0 0 0 0 0 0 0 0 0 0 0 0 0 0 0 0 0 0 0 0 0 0 0 0 0 0 0 0 0 0 0 0 0 0 0 0 0 0 0 0 0 0 0 0
0 0 0 0 0 0 0 0 0 -0 0 0 0 0 0 0 0 0 0 0 0 0 0 0 0 0 0 0 0 0 0 0 0 0 0 0 0 0 0 0 0 0 0 0 0 0 0
0 0 0 0 0 0 0 0 0 0 0 0 0 0 0 0 0 0 0 0 0 0 0 0 0 0 0 0 0 0 0 0 0 0 0 0 0 0 0 0 0 0 0 0 0 0 0
0 0 0 0 0 0 0 0 0 0 0 0 0 0 0 0 0 0 0 0 0 -0 -0 0 0 0 0 0 0 0 0 0 0 0 0 0 0 0 0 0 0 0 0 0 0 0 0
0 0 0 0 0 0 0 0 0 0 0 0 0 0 0 0 0 0 0 0 -0 -0 0 0 0 0 0 0 0 0 0 0 0 0 0 0 0 0 0 0 0 0 0 0 0 0 0
0 0 0 0 0 0 0 0 0 0 0 0 0 0 0 0 0 0 0 0 -0 0 0 0 0 0 0 0 0 0 0 0 0 0 0 0 0 0 0 0 0 0 0 0 0 0 0
0 0 0 0 0 0 0 0 0 0 0 0 0 0 0 0 0 0 0 0 0 0 -0 0 0 0 0 0 0 0 0 0 0 0 0 0 0 0 0 0 0 0 0 0 0 0 0
0 0 0 0 0 0 0 0 0 0 0 0 0 0 0 0 0 0 0 0 0 0 0 0 0 0 0 0 0 0 0 0 0 0 0 0 0 0 0 0 0 0 0 0 0 0 0
0 0 0 0 0 0 0 0 0 0 0 0 0 0 0 0 0 0 0 0 0 0 0 0 -0 -0 0 0 0 0 0 0 0 0 0 0 0 0 0 0 0 0 0 0 0 0 0
0 0 0 0 0 0 0 0 0 0 0 0 0 0 -0 0 0 0 0 0 0 0 0 0 0 0 0 0 0 -0 0 0 0 0 0 0 0 0 0 0 0 0 0 0 0 0 0
0 0 0 0 0 0 0 0 0 0 0 0 0 0 0 0 0 0 0 0 0 0 0 0 0 -0 -0 0 0 0 0 0 0 0 0 0 0 0 0 0 0 0 0 0 0 0 0
0 0 0 0 0 0 0 0 0 0 0 0 0 0 0 0 0 0 0 0 0 0 0 0 0 0 -0 -0 0 0 -0 0 0 0 0 0 0 0 0 0 0 0 0 0 0 0 0
0 0 0 0 0 0 0 0 0 0 0 0 0 0 0 0 0 0 0 0 0 0 0 0 0 -0 -0 -0 0 -0 0 0 0 0 0 0 0 0 0 0 0 0 0 0 0 0 0
0 0 0 0 0 0 0 0 0 0 0 0 0 0 0 0 0 0 0 0 0 0 0 0 0 -0 -0 -0 -0 0 0 0 0 0 0 0 0 0 0 0 0 0 0 0 0 0 0
0 0 0 0 0 0 0 0 0 0 0 0 0 0 0 0 0 0 0 0 0 0 0 0 0 0 -0 -0 -0 -0 0 0 0 0 0 0 0 0 0 0 0 0 0 0 0 0 0
0 0 0 0 0 0 0 0 -0 0 0 0 0 0 0 0 0 0 0 0 0 0 0 0 0 -0 -0 -0 -0 0 0 -0 0 0 0 0 0 0 0 0 0 0 0 0 0 0 0
0 0 0 0 0 0 0 0 0 0 0 0 0 0 0 0 0 0 0 0 0 0 0 0 0 -0 -0 0 0 -0 -0 -0 0 0 0 0 0 0 0 0 0 0 0 0 0 0 0
0 0 0 0 0 0 -0 0 0 0 0 0 0 0 0 0 0 0 0 0 0 0 0 0 0 -0 -0 0 -0 -0 0 0 0 0 0 0 0 0 0 0 0 0 0 0 0 0 0
0 0 0 0 0 0 0 -0 -0 -0 0 0 0 0 0 0 0 0 0 0 0 0 0 0 0 -0 0 0 0 -0 0 0 0 0 0 0 0 0 0 0 0 0 0 0 0 0 0
0 0 0 0 0 0 0 -0 -0 -0 0 0 0 0 0 0 0 0 0 0 0 0 0 0 0 -0 -0 0 0 -0 -0 -0 -0 0 -0 0 0 0 0 0 0 0 0 0 0 0 0
0 0 0 0 0 0 0 -0 -0 -0 0 0 0 0 0 0 0 0 0 0 0 0 0 0 0 0 -0 0 0 0 -0 -0 -0 -0 -0 -0 0 0 0 0 0 0 0 0 0 0 0
0 0 0 0 0 0 0 -0 -0 -0 0 0 0 0 0 0 0 0 0 0 0 0 0 0 -0 -0 -0 -0 0 0 -0 0 -0 -0 -0 -0 -0 0 0 0 0 0 0 0 0 0 0
0 0 0 0 0 0 0 -0 -0 -0 -0 0 0 0 0 0 0 0 0 0 0 0 0 0 -0 -0 0 -0 -0 0 0 0 -0 -0 -0 -0 -0 -0 -0 0 0 0 0 0 0 0 0
0 0 0 0 0 0 0 0 -0 -0 -0 -0 -0 0 0 0 0 0 0 0 0 0 0 0 0 0 0 0 -0 -0 0 -0 -0 -0 -0 -0 -0 -0 -0 -0 0 0 0 0 0 0 0
0 0 0 0 0 0 0 -0 -0 -0 -0 -0 -0 0 0 0 0 0 0 0 0 0 0 0 0 0 0 0 0 -0 -0 -0 -0 -0 -0 -0 -0 -0 -0 -0 -0 -0 -0 0 0 0 0
0 0 0 0 0 0 0 -0 -0 -0 -0 -0 -0 0 0 0 0 0 0 0 0 0 0 0 0 0 0 0 0 0 0 -0 -0 -0 -0 -0 -0 -0 -0 -0 -0 0 0 -0 0 0 0
0 0 0 0 0 0 0 -0 -0 -0 -0 -0 -0 0 0 0 0 0 0 0 0 0 0 0 0 0 0 0 0 0 0 0 -0 -0 -0 -0 -0 -0 -0 -0 -0 -0 -0 -0 -0 -0 0
0 0 0 0 0 0 0 -0 -0 -0 -0 -0 -0 0 0 0 0 0 0 0 0 0 0 0 0 0 0 0 0 0 0 0 0 -0 0 -0 0 0 -0 -0 -0 -0 -0 -0 0 0 0
Wind_Speed_500mb
35 38 40 41 40 40 41 42 43 45 46 39 43 46 42 44 46 47 45 42 37 37 37 46 47 49 57 24 40 31 21 25 27 20 21 27 27 14 10 10 10 7 8 17 32 14 15
37 38 39 38 37 39 42 43 44 46 47 49 49 42 43 47 47 46 49 47 47 48 45 36 46 46 40 31 26 30 36 42 39 28 24 26 15 25 12 9 13 11 16 11 10 14 16
33 37 37 40 41 42 43 44 48 47 48 50 50 50 50 49 50 49 49 51 53 52 54 44 41 45 53 61 56 46 30 36 27 28 30 30 35 19 9 5 24 7 6 7 14 13 11
28 28 28 28 35 40 40 42 45 47 48 52 51 51 54 54 52 53 54 55 55 58 59 49 45 48 51 47 62 67 59 55 36 30 31 28 29 26 13 6 3 6 2 4 6 19 9
33 33 32 36 34 41 47 45 47 46 48 44 48 49 51 51 55 55 57 59 64 59 54 44 47 45 56 46 38 29 37 60 50 33 27 20 27 18 11 9 3 4 6 10 14 26 9
35 38 41 42 44 44 48 50 50 49 52 51 53 54 53 51 55 59 57 65 64 33 25 28 48 26 35 50 33 22 26 23 37 31 31 24 18 9 6 12 21 9 7 11 13 9 6
36 38 40 45 48 49 51 50 52 54 58 54 53 53 55 56 54 54 58 68 44 15 23 31 59 43 33 25 35 24 16 17 36 15 17 14 10 32 32 33 12 13 10 14 7 9 9
38 41 45 48 48 50 49 55 56 54 50 53 54 57 53 57 51 45 46 38 30 29 43 48 65 90 98 80 70 62 35 12 20 34 15 10 46 22 16 14 24 12 13 13 9 6 10
41 44 48 50 49 51 52 52 56 53 51 55 54 51 51 47 42 37 34 22 28 44 23 45 59 69 64 73 86 74 49 31 18 31 44 51 7 30 27 19 32 36 37 10 6 3 6
42 49 51 50 51 53 54 55 52 54 51 55 46 47 49 40 30 14 27 25 42 41 7 18 13 18 39 43 39 68 85 56 23 33 36 39 49 27 25 39 34 37 16 12 9 3 9
48 50 53 54 50 52 53 54 52 50 50 54 50 44 42 33 28 25 29 34 39 12 8 20 12 23 52 28 19 20 69 76 58 24 23 21 26 33 26 29 29 14 18 26 13 8 4
47 47 54 56 51 51 52 52 50 50 50 49 48 39 37 30 35 30 29 27 18 11 12 15 10 20 31 55 63 23 18 60 53 29 27 32 7 36 27 11 32 17 15 13 9 7 7
46 51 54 58 52 49 48 53 45 46 47 46 45 41 34 29 31 32 26 11 8 9 12 15 8 26 35 53 48 31 26 39 32 39 42 31 20 10 12 14 19 12 24 3 1 3 19
45 49 56 58 53 54 50 51 47 46 44 46 41 37 37 31 27 32 26 3 9 16 17 18 25 35 36 31 25 34 24 30 49 38 9 31 22 34 11 18 17 25 32 14 16 10 6
45 54 56 57 58 56 51 48 49 47 45 45 46 42 43 36 29 31 15 8 13 15 8 10 31 27 33 5 16 25 30 35 27 56 12 31 30 2 17 9 28 16 29 16 13 4 5
49 50 56 58 59 57 53 50 51 42 42 43 44 42 45 13 14 24 9 27 10 7 8 7 22 11 42 38 22 14 20 16 27 43 40 8 6 13 20 8 9 32 25 14 1 11 9
50 50 54 58 58 58 51 50 51 48 42 41 37 17 12 3 13 17 8 13 13 23 20 10 16 24 36 37 34 37 21 45 22 22 39 9 8 2 16 24 40 10 29 11 10 7 15
47 55 51 57 58 57 49 49 49 46 44 35 15 4 14 12 7 4 5 11 7 23 27 19 13 24 33 39 42 33 42 18 14 8 34 39 5 10 27 14 2 14 20 21 22 16 5
52 54 52 55 60 59 57 50 51 42 35 35 10 20 22 27 6 5 9 9 8 13 27 9 13 12 22 34 24 20 35 13 18 14 3 25 17 19 7 6 6 31 22 46 1 7 16
52 55 51 56 52 58 58 54 54 42 34 31 18 3 7 21 14 8 4 13 10 21 27 23 27 31 38 41 35 22 19 6 21 5 25 15 13 7 28 33 13 4 26 37 23 11 25
56 55 54 56 57 57 59 54 55 43 31 31 17 8 13 4 11 12 10 8 12 14 20 12 12 21 23 26 34 13 11 5 9 12 7 7 11 9 12 15 11 11 14 15 37 36 15
56 56 59 58 58 59 60 54 52 45 35 38 14 6 10 16 12 12 20 22 30 40 13 12 20 32 20 24 26 17 11 4 3 3 1 4 2 12 12 24 11 5 10 16 21 34 21
53 57 60 60 61 58 59 56 50 47 36 44 44 54 47 39 6 10 13 22 33 25 30 50 34 27 26 28 40 21 16 23 10 3 3 5 7 4 4 12 11 7 8 6 15 15 31
55 55 57 61 62 62 60 60 53 50 41 50 46 53 17 7 13 17 24 25 31 33 36 44 35 11 18 24 33 15 12 18 14 11 7 3 3 6 2 7 2 5 5 16 17 19 15
54 56 61 62 62 65 63 61 54 53 50 51 54 54 28 10 20 32 31 25 41 45 36 38 58 50 34 14 4 9 10 13 9 12 4 5 1 4 7 6 11 6 8 9 4 11 10
57 59 59 61 63 64 63 63 54 53 57 58 67 64 53 28 25 43 22 41 24 20 11 39 56 42 15 4 4 7 7 9 9 10 4 6 2 4 5 10 9 7 15 13 11 9 14
61 62 60 62 61 69 63 63 55 60 61 65 76 66 66 42 71 55 23 23 29 23 10 5 6 11 38 8 6 7 9 10 5 10 7 6 1 8 4 3 10 10 13 10 8 6 22
62 62 61 62 65 69 69 61 62 64 65 65 81 76 65 44 69 58 68 54 32 46 17 12 8 6 4 10 8 7 5 9 4 8 10 11 10 8 4 6 12 11 11 11 8 27 6
65 62 58 62 67 68 69 66 69 65 68 67 90 78 60 65 44 51 76 98 80 96 56 43 15 13 18 6 5 6 3 3 4 5 3 6 12 8 12 10 4 21 4 12 9 17 11
Wind_Direction_500mb
26 21 17 14 14 11 8 5 2 0 1 357 354 353 346 336 340 339 324 306 317 311 308 309 315 321 323 319 258 249 250 275 290 287 270 227 220 207 207 218 174 235 234 205 231 228 239
20 13 12 8 7 4 0 358 355 354 353 352 351 348 348 343 341 336 330 327 313 295 295 307 302 306 301 275 287 280 268 261 262 261 265 233 214 224 263 227 193 231 226 236 230 225 229
9 6 4 360 356 356 352 346 346 345 343 342 340 341 341 340 337 336 333 323 319 289 278 285 298 291 275 258 278 279 270 265 240 237 250 245 231 218 233 259 233 231 253 304 230 216 228
356 355 351 350 348 340 338 335 334 333 331 331 333 331 333 335 331 331 329 325 323 309 289 277 288 286 270 281 292 279 262 248 242 232 239 237 225 229 220 245 344 204 194 213 268 161 233
351 342 337 345 338 342 335 335 332 330 327 322 321 324 325 326 325 327 328 324 321 325 308 272 284 289 278 278 280 312 274 253 232 228 221 220 204 206 175 139 322 282 222 219 305 196 145
356 353 352 348 343 340 335 330 328 328 327 330 322 316 314 320 321 324 326 320 332 333 307 275 270 278 256 266 289 308 305 279 229 222 230 223 202 178 171 163 213 195 221 236 222 215 171
356 343 343 342 336 336 334 333 331 329 327 321 321 316 317 313 315 319 325 331 356 348 343 307 289 263 269 299 300 302 318 311 211 212 186 199 190 209 188 196 178 184 198 210 231 232 167
345 345 342 335 336 335 334 335 336 339 331 320 314 317 317 313 312 313 318 330 334 310 299 283 278 273 266 272 279 265 279 218 197 219 183 190 229 208 177 192 203 182 194 229 286 169 178
340 344 341 340 342 339 336 335 332 330 329 324 322 317 310 314 308 305 317 338 331 331 299 291 270 257 257 244 245 248 248 232 219 223 213 220 192 181 186 188 202 219 219 166 225 134 226
333 340 342 339 338 334 336 332 330 329 324 323 318 317 313 314 307 297 320 323 323 338 326 289 260 288 243 238 262 246 240 226 221 224 219 236 232 194 198 212 190 218 158 152 157 83 241
335 339 339 337 332 329 331 327 328 324 323 320 317 313 309 288 288 291 305 310 327 346 351 287 323 335 339 190 300 221 239 207 224 206 188 215 174 189 216 219 184 208 151 187 171 177 28
336 336 334 336 331 329 329 325 323 322 320 317 318 310 319 302 278 276 287 307 332 50 255 285 292 0 351 325 311 281 208 213 224 221 224 222 238 196 205 149 186 136 96 61 62 103 267
336 333 335 336 332 323 326 320 320 320 318 319 318 311 303 301 288 285 268 289 39 136 295 271 283 326 323 307 313 247 247 209 215 202 223 205 219 285 149 120 160 169 152 72 71 191 238
331 331 333 337 336 327 327 324 319 317 320 319 320 312 302 289 290 283 273 120 180 228 235 296 311 317 307 328 329 349 238 220 220 229 210 215 205 198 201 196 177 183 179 163 180 198 197
330 327 335 336 335 328 323 324 322 322 320 322 318 311 304 309 290 263 229 237 200 210 265 311 323 302 298 336 317 306 267 239 228 216 212 201 225 80 191 160 150 188 205 169 101 11 82
326 330 333 334 331 328 321 323 322 321 322 325 321 318 306 317 252 215 210 250 234 224 324 307 282 242 292 312 301 336 335 268 233 223 202 270 203 199 189 126 218 183 168 172 316 150 233
328 329 333 334 331 327 323 319 321 323 321 320 319 310 291 258 203 204 232 228 234 266 254 208 263 275 282 301 295 302 265 288 287 216 207 215 202 329 141 207 190 144 187 195 128 170 187
329 324 333 334 332 326 319 316 311 310 317 320 315 289 275 185 162 265 194 201 225 279 267 256 258 263 267 279 281 277 269 272 309 280 212 211 275 146 206 202 270 192 188 186 194 217 226
323 321 330 329 331 325 323 321 318 306 309 314 250 270 247 202 215 248 302 296 243 262 267 251 259 257 294 284 291 264 293 237 279 24 13 197 210 191 3 294 250 202 209 200 161 115 206
324 319 322 320 328 329 322 320 315 311 296 295 273 302 245 213 223 148 149 260 241 260 261 254 256 270 282 270 261 263 274 269 302 71 10 348 233 259 200 211 143 209 206 204 206 183 209
311 316 317 321 324 327 324 316 314 315 297 285 248 230 223 253 260 222 207 225 239 275 236 244 285 243 274 298 313 209 217 240 250 346 39 346 14 20 293 326 194 179 195 197 216 229 187
313 317 318 319 318 322 324 316 304 308 302 284 277 229 216 255 227 189 227 248 260 265 227 262 250 280 279 279 289 309 305 229 285 83 319 313 22 357 32 360 2 271 341 219 216 231 251
311 314 315 319 316 318 320 315 303 301 299 288 274 267 233 251 193 183 209 237 254 256 256 244 255 273 274 291 292 239 286 309 269 164 201 227 146 81 42 329 329 223 250 271 267 228 223
310 313 317 319 316 319 317 314 300 297 291 288 287 285 259 247 223 225 251 236 242 245 247 265 261 230 251 296 306 282 270 273 285 284 171 206 293 106 103 346 222 312 272 226 242 277 280
310 313 316 316 316 315 317 313 297 296 294 288 288 279 271 264 240 250 234 246 257 245 243 254 264 254 270 286 288 358 335 3 312 268 223 188 198 110 119 153 295 121 22 33 7 291 231
309 312 312 314 315 315 313 314 300 296 297 293 287 282 255 263 232 243 245 233 230 237 283 250 261 266 228 167 127 175 223 224 302 304 284 190 351 109 126 147 189 180 155 217 140 281 328
309 308 310 314 316 314 312 310 297 298 299 296 291 286 279 227 249 251 226 228 220 201 230 259 202 195 207 186 173 166 240 172 199 186 184 138 63 172 261 149 278 241 176 136 90 289 330
306 305 309 317 316 316 312 308 298 300 299 298 293 289 274 253 262 242 239 224 224 208 216 206 114 242 147 195 184 205 164 232 118 190 183 171 156 179 136 80 274 203 122 165 187 175 80
305 305 309 314 314 315 314 306 305 302 300 302 295 288 282 261 250 258 253 251 234 251 231 197 205 156 191 160 202 118 151 66 168 259 11 230 194 185 187 212 170 188 296 259 234 208 247
Wind_Speed_850mb
35 38 40 41 40 40 41 42 43 45 46 39 43 46 42 44 46 47 45 42 37 37 37 46 47 49 57 24 40 31 21 25 27 20 21 27 27 14 10 10 10 7 8 17 32 14 15
37 38 39 38 37 39 42 43 44 46 47 49 49 42 43 47 47 46 49 47 47 48 45 36 46 46 40 31 26 30 36 42 39 28 24 26 15 25 12 9 13 11 16 11 10 14 16
33 37 37 40 41 42 43 44 48 47 48 50 50 50 50 49 50 49 49 51 53 52 54 44 41 45 53 61 56 46 30 36 27 28 30 30 35 19 9 5 24 7 6 7 14 13 11
28 28 28 28 35 40 40 42 45 47 48 52 51 51 54 54 52 53 54 55 55 58 59 49 45 48 51 47 62 67 59 55 36 30 31 28 29 26 13 6 3 6 2 4 6 19 9
33 33 32 36 34 41 47 45 47 46 48 44 48 49 51 51 55 55 57 59 64 59 54 44 47 45 56 46 38 29 37 60 50 33 27 20 27 18 11 9 3 4 6 10 14 26 9
35 38 41 42 44 44 48 50 50 49 52 51 53 54 53 51 55 59 57 65 64 33 25 28 48 26 35 50 33 22 26 23 37 31 31 24 18 9 6 12 21 9 7 11 13 9 6
36 38 40 45 48 49 51 50 52 54 58 54 53 53 55 56 54 54 58 68 44 15 23 31 59 43 33 25 35 24 16 17 36 15 17 14 10 32 32 33 12 13 10 14 7 9 9
38 41 45 48 48 50 49 55 56 54 50 53 54 57 53 57 51 45 46 38 30 29 43 48 65 90 98 80 70 62 35 12 20 34 15 10 46 22 16 14 24 12 13 13 9 6 10
41 44 48 50 49 51 52 52 56 53 51 55 54 51 51 47 42 37 34 22 28 44 23 45 59 69 64 73 86 74 49 31 18 31 44 51 7 30 27 19 32 36 37 10 6 3 6
42 49 51 50 51 53 54 55 52 54 51 55 46 47 49 40 30 14 27 25 42 41 7 18 13 18 39 43 39 68 85 56 23 33 36 39 49 27 25 39 34 37 16 12 9 3 9
48 50 53 54 50 52 53 54 52 50 50 54 50 44 42 33 28 25 29 34 39 12 8 20 12 23 52 28 19 20 69 76 58 24 23 21 26 33 26 29 29 14 18 26 13 8 4
47 47 54 56 51 51 52 52 50 50 50 49 48 39 37 30 35 30 29 27 18 11 12 15 10 20 31 55 63 23 18 60 53 29 27 32 7 36 27 11 32 17 15 13 9 7 7
46 51 54 58 52 49 48 53 45 46 47 46 45 41 34 29 31 32 26 11 8 9 12 15 8 26 35 53 48 31 26 39 32 39 42 31 20 10 12 14 19 12 24 3 1 3 19
45 49 56 58 53 54 50 51 47 46 44 46 41 37 37 31 27 32 26 3 9 16 17 18 25 35 36 31 25 34 24 30 49 38 9 31 22 34 11 18 17 25 32 14 16 10 6
45 54 56 57 58 56 51 48 49 47 45 45 46 42 43 36 29 31 15 8 13 15 8 10 31 27 33 5 16 25 30 35 27 56 12 31 30 2 17 9 28 16 29 16 13 4 5
49 50 56 58 59 57 53 50 51 42 42 43 44 42 45 13 14 24 9 27 10 7 8 7 22 11 42 38 22 14 20 16 27 43 40 8 6 13 20 8 9 32 25 14 1 11 9
50 50 54 58 58 58 51 50 51 48 42 41 37 17 12 3 13 17 8 13 13 23 20 10 16 24 36 37 34 37 21 45 22 22 39 9 8 2 16 24 40 10 29 11 10 7 15
47 55 51 57 58 57 49 49 49 46 44 35 15 4 14 12 7 4 5 11 7 23 27 19 13 24 33 39 42 33 42 18 14 8 34 39 5 10 27 14 2 14 20 21 22 16 5
52 54 52 55 60 59 57 50 51 42 35 35 10 20 22 27 6 5 9 9 8 13 27 9 13 12 22 34 24 20 35 13 18 14 3 25 17 19 7 6 6 31 22 46 1 7 16
52 55 51 56 52 58 58 54 54 42 34 31 18 3 7 21 14 8 4 13 10 21 27 23 27 31 38 41 35 22 19 6 21 5 25 15 13 7 28 33 13 4 26 37 23 11 25
56 55 54 56 57 57 59 54 55 43 31 31 17 8 13 4 11 12 10 8 12 14 20 12 12 21 23 26 34 13 11 5 9 12 7 7 11 9 12 15 11 11 14 15 37 36 15
56 56 59 58 58 59 60 54 52 45 35 38 14 6 10 16 12 12 20 22 30 40 13 12 20 32 20 24 26 17 11 4 3 3 1 4 2 12 12 24 11 5 10 16 21 34 21
53 57 60 60 61 58 59 56 50 47 36 44 44 54 47 39 6 10 13 22 33 25 30 50 34 27 26 28 40 21 16 23 10 3 3 5 7 4 4 12 11 7 8 6 15 15 31
55 55 57 61 62 62 60 60 53 50 41 50 46 53 17 7 13 17 24 25 31 33 36 44 35 11 18 24 33 15 12 18 14 11 7 3 3 6 2 7 2 5 5 16 17 19 15
54 56 61 62 62 65 63 61 54 53 50 51 54 54 28 10 20 32 31 25 41 45 36 38 58 50 34 14 4 9 10 13 9 12 4 5 1 4 7 6 11 6 8 9 4 11 10
57 59 59 61 63 64 63 63 54 53 57 58 67 64 53 28 25 43 22 41 24 20 11 39 56 42 15 4 4 7 7 9 9 10 4 6 2 4 5 10 9 7 15 13 11 9 14
61 62 60 62 61 69 63 63 55 60 61 65 76 66 66 42 71 55 23 23 29 23 10 5 6 11 38 8 6 7 9 10 5 10 7 6 1 8 4 3 10 10 13 10 8 6 22
62 62 61 62 65 69 69 61 62 64 65 65 81 76 65 44 69 58 68 54 32 46 17 12 8 6 4 10 8 7 5 9 4 8 10 11 10 8 4 6 12 11 11 11 8 27 6
65 62 58 62 67 68 69 66 69 65 68 67 90 78 60 65 44 51 76 98 80 96 56 43 15 13 18 6 5 6 3 3 4 5 3 6 12 8 12 10 4 21 4 12 9 17 11
Wind_Direction_850mb
26 21 17 14 14 11 8 5 2 0 1 357 354 353 346 336 340 339 324 306 317 311 308 309 315 321 323 319 258 249 250 275 290 287 270 227 220 207 207 218 174 235 234 205 231 228 239
20 13 12 8 7 4 0 358 355 354 353 352 351 348 348 343 341 336 330 327 313 295 295 307 302 306 301 275 287 280 268 261 262 261 265 233 214 224 263 227 193 231 226 236 230 225 229
9 6 4 360 356 356 352 346 346 345 343 342 340 341 341 340 337 336 333 323 319 289 278 285 298 291 275 258 278 279 270 265 240 237 250 245 231 218 233 259 233 231 253 304 230 216 228
356 355 351 350 348 340 338 335 334 333 331 331 333 331 333 335 331 331 329 325 323 309 289 277 288 286 270 281 292 279 262 248 242 232 239 237 225 229 220 245 344 204 194 213 268 161 233
351 342 337 345 338 342 335 335 332 330 327 322 321 324 325 326 325 327 328 324 321 325 308 272 284 289 278 278 280 312 274 253 232 228 221 220 204 206 175 139 322 282 222 219 305 196 145
356 353 352 348 343 340 335 330 328 328 327 330 322 316 314 320 321 324 326 320 332 333 307 275 270 278 256 266 289 308 305 279 229 222 230 223 202 178 171 163 213 195 221 236 222 215 171
356 343 343 342 336 336 334 333 331 329 327 321 321 316 317 313 315 319 325 331 356 348 343 307 289 263 269 299 300 302 318 311 211 212 186 199 190 209 188 196 178 184 198 210 231 232 167
345 345 342 335 336 335 334 335 336 339 331 320 314 317 317 313 312 313 318 330 334 310 299 283 278 273 266 272 279 265 279 218 197 219 183 190 229 208 177 192 203 182 194 229 286 169 178
340 344 341 340 342 339 336 335 332 330 329 324 322 317 310 314 308 305 317 338 331 331 299 291 270 257 257 244 245 248 248 232 219 223 213 220 192 181 186 188 202 219 219 166 225 134 226
333 340 342 339 338 334 336 332 330 329 324 323 318 317 313 314 307 297 320 323 323 338 326 289 260 288 243 238 262 246 240 226 221 224 219 236 232 194 198 212 190 218 158 152 157 83 241
335 339 339 337 332 329 331 327 328 324 323 320 317 313 309 288 288 291 305 310 327 346 351 287 323 335 339 190 300 221 239 207 224 206 188 215 174 189 216 219 184 208 151 187 171 177 28
336 336 334 336 331 329 329 325 323 322 320 317 318 310 319 302 278 276 287 307 332 50 255 285 292 0 351 325 311 281 208 213 224 221 224 222 238 196 205 149 186 136 96 61 62 103 267
336 333 335 336 332 323 326 320 320 320 318 319 318 311 303 301 288 285 268 289 39 136 295 271 283 326 323 307 313 247 247 209 215 202 223 205 219 285 149 120 160 169 152 72 71 191 238
331 331 333 337 336 327 327 324 319 317 320 319 320 312 302 289 290 283 273 120 180 228 235 296 311 317 307 328 329 349 238 220 220 229 210 215 205 198 201 196 177 183 179 163 180 198 197
330 327 335 336 335 328 323 324 322 322 320 322 318 311 304 309 290 263 229 237 200 210 265 311 323 302 298 336 317 306 267 239 228 216 212 201 225 80 191 160 150 188 205 169 101 11 82
326 330 333 334 331 328 321 323 322 321 322 325 321 318 306 317 252 215 210 250 234 224 324 307 282 242 292 312 301 336 335 268 233 223 202 270 203 199 189 126 218 183 168 172 316 150 233
328 329 333 334 331 327 323 319 321 323 321 320 319 310 291 258 203 204 232 228 234 266 254 208 263 275 282 301 295 302 265 288 287 216 207 215 202 329 141 207 190 144 187 195 128 170 187
329 324 333 334 332 326 319 316 311 310 317 320 315 289 275 185 162 265 194 201 225 279 267 256 258 263 267 279 281 277 269 272 309 280 212 211 275 146 206 202 270 192 188 186 194 217 226
323 321 330 329 331 325 323 321 318 306 309 314 250 270 247 202 215 248 302 296 243 262 267 251 259 257 294 284 291 264 293 237 279 24 13 197 210 191 3 294 250 202 209 200 161 115 206
324 319 322 320 328 329 322 320 315 311 296 295 273 302 245 213 223 148 149 260 241 260 261 254 256 270 282 270 261 263 274 269 302 71 10 348 233 259 200 211 143 209 206 204 206 183 209
311 316 317 321 324 327 324 316 314 315 297 285 248 230 223 253 260 222 207 225 239 275 236 244 285 243 274 298 313 209 217 240 250 346 39 346 14 20 293 326 194 179 195 197 216 229 187
313 317 318 319 318 322 324 316 304 308 302 284 277 229 216 255 227 189 227 248 260 265 227 262 250 280 279 279 289 309 305 229 285 83 319 313 22 357 32 360 2 271 341 219 216 231 251
311 314 315 319 316 318 320 315 303 301 299 288 274 267 233 251 193 183 209 237 254 256 256 244 255 273 274 291 292 239 286 309 269 164 201 227 146 81 42 329 329 223 250 271 267 228 223
310 313 317 319 316 319 317 314 300 297 291 288 287 285 259 247 223 225 251 236 242 245 247 265 261 230 251 296 306 282 270 273 285 284 171 206 293 106 103 346 222 312 272 226 242 277 280
310 313 316 316 316 315 317 313 297 296 294 288 288 279 271 264 240 250 234 246 257 245 243 254 264 254 270 286 288 358 335 3 312 268 223 188 198 110 119 153 295 121 22 33 7 291 231
309 312 312 314 315 315 313 314 300 296 297 293 287 282 255 263 232 243 245 233 230 237 283 250 261 266 228 167 127 175 223 224 302 304 284 190 351 109 126 147 189 180 155 217 140 281 328
309 308 310 314 316 314 312 310 297 298 299 296 291 286 279 227 249 251 226 228 220 201 230 259 202 195 207 186 173 166 240 172 199 186 184 138 63 172 261 149 278 241 176 136 90 289 330
306 305 309 317 316 316 312 308 298 300 299 298 293 289 274 253 262 242 239 224 224 208 216 206 114 242 147 195 184 205 164 232 118 190 183 171 156 179 136 80 274 203 122 165 187 175 80
305 305 309 314 314 315 314 306 305 302 300 302 295 288 282 261 250 258 253 251 234 251 231 197 205 156 191 160 202 118 151 66 168 259 11 230 194 185 187 212 170 188 296 259 234 208 247